| time (UTC) | temp C | wind direction | speed KPH | gust KPH | rain 1hr cm | rain 24hr cm | rain mn cm | humidity % | barometer mb |
| 20260506223831 | 9 | 287 | 8.0 | 12.9 | 0.00 | 0.00 | 0.00 | 78 | 1015.0 |
| 20260506222832 | 9 | 287 | 4.8 | 9.7 | 0.00 | 0.00 | 0.00 | 79 | 1014.8 |
| 20260506221830 | 9 | 275 | 1.6 | 4.8 | 0.00 | 0.00 | 0.00 | 79 | 1014.8 |
| 20260506220830 | 9 | 273 | 4.8 | 11.3 | 0.00 | 0.00 | 0.00 | 78 | 1014.7 |
| 20260506215830 | 10 | 270 | 4.8 | 6.4 | 0.00 | 0.00 | 0.00 | 78 | 1014.7 |
| 20260506214830 | 9 | 270 | 4.8 | 6.4 | 0.00 | 0.00 | 0.00 | 77 | 1014.7 |
| 20260506213831 | 10 | 270 | 4.8 | 8.0 | 0.00 | 0.00 | 0.00 | 76 | 1014.5 |
| 20260506212835 | 10 | 311 | 4.8 | 6.4 | 0.00 | 0.00 | 0.00 | 75 | 1014.4 |
| 20260506211830 | 10 | 311 | 8.0 | 11.3 | 0.00 | 0.00 | 0.00 | 74 | 1014.4 |
| 20260506210830 | 10 | 311 | 4.8 | 8.0 | 0.00 | 0.00 | 0.00 | 73 | 1014.3 |
| 20260506205835 | 10 | 270 | 6.4 | 9.7 | 0.00 | 0.00 | 0.00 | 72 | 1014.3 |
| 20260506204838 | 11 | 358 | 8.0 | 11.3 | 0.00 | 0.00 | 0.00 | 71 | 1014.2 |
| 20260506203920 | 11 | 358 | 6.4 | 9.7 | 0.00 | 0.00 | 0.00 | 71 | 1014.1 |
| 20260506202830 | 11 | 358 | 6.4 | 9.7 | 0.00 | 0.00 | 0.00 | 69 | 1014.1 |
| 20260506201831 | 11 | 358 | 4.8 | 4.8 | 0.00 | 0.00 | 0.00 | 66 | 1014.0 |
| 20260506200830 | 11 | 358 | 11.3 | 14.5 | 0.00 | 0.00 | 0.00 | 63 | 1013.9 |
| 20260506195831 | 11 | 111 | 8.0 | 14.5 | 0.00 | 0.00 | 0.00 | 63 | 1013.8 |
| 20260506194831 | 12 | 111 | 4.8 | 8.0 | 0.00 | 0.00 | 0.00 | 63 | 1013.6 |
| 20260506193831 | 12 | 111 | 9.7 | 14.5 | 0.00 | 0.00 | 0.00 | 62 | 1013.6 |
| 20260506192836 | 12 | 111 | 6.4 | 9.7 | 0.00 | 0.00 | 0.00 | 62 | 1013.5 |
| 20260506191855 | 12 | 288 | 8.0 | 16.1 | 0.00 | 0.00 | 0.00 | 61 | 1013.3 |
| 20260506190836 | 12 | 288 | 4.8 | 11.3 | 0.00 | 0.00 | 0.00 | 62 | 1013.2 |
| 20260506185831 | 12 | 288 | 8.0 | 12.9 | 0.00 | 0.00 | 0.00 | 62 | 1013.0 |
| 20260506184830 | 12 | 305 | 4.8 | 14.5 | 0.00 | 0.00 | 0.00 | 62 | 1012.9 |
| 20260506183851 | 13 | 298 | 16.1 | 19.3 | 0.00 | 0.00 | 0.00 | 61 | 1012.9 |
| 20260506182836 | 13 | 103 | 9.7 | 16.1 | 0.00 | 0.00 | 0.00 | 61 | 1012.7 |
| 20260506181831 | 13 | 102 | 6.4 | 8.0 | 0.00 | 0.00 | 0.00 | 60 | 1012.6 |
| 20260506180831 | 13 | 290 | 4.8 | 8.0 | 0.00 | 0.00 | 0.00 | 59 | 1012.5 |
| 20260506175831 | 13 | 73 | 9.7 | 9.7 | 0.00 | 0.00 | 0.00 | 60 | 1012.4 |
| 20260506174831 | 13 | 274 | 4.8 | 6.4 | 0.00 | 0.00 | 0.00 | 61 | 1012.2 |
| 20260506173836 | 13 | 128 | 6.4 | 14.5 | 0.00 | 0.00 | 0.00 | 61 | 1012.2 |
| 20260506172836 | 13 | 163 | 4.8 | 8.0 | 0.00 | 0.00 | 0.00 | 60 | 1012.0 |
| 20260506171851 | 13 | 105 | 4.8 | 8.0 | 0.00 | 0.00 | 0.00 | 59 | 1011.9 |
| 20260506170831 | 13 | 192 | 8.0 | 12.9 | 0.00 | 0.00 | 0.00 | 58 | 1011.9 |
| 20260506165830 | 13 | 113 | 12.9 | 19.3 | 0.00 | 0.00 | 0.00 | 56 | 1011.8 |
| 20260506164831 | 13 | 94 | 3.2 | 8.0 | 0.00 | 0.00 | 0.00 | 54 | 1011.7 |
| 20260506163831 | 13 | 167 | 3.2 | 11.3 | 0.00 | 0.00 | 0.00 | 54 | 1011.8 |
| 20260506162831 | 13 | 319 | 6.4 | 19.3 | 0.00 | 0.00 | 0.00 | 53 | 1011.7 |
| 20260506161831 | 13 | 274 | 8.0 | 9.7 | 0.00 | 0.00 | 0.00 | 52 | 1011.8 |
| 20260506160831 | 13 | 101 | 6.4 | 9.7 | 0.00 | 0.00 | 0.00 | 50 | 1011.6 |
| 20260506155831 | 14 | 95 | 9.7 | 11.3 | 0.00 | 0.00 | 0.00 | 47 | 1011.6 |
| 20260506154831 | 14 | 118 | 8.0 | 9.7 | 0.00 | 0.00 | 0.00 | 46 | 1011.7 |
| 20260506153831 | 14 | 113 | 4.8 | 11.3 | 0.00 | 0.00 | 0.00 | 46 | 1011.7 |
| 20260506152859 | 14 | 174 | 6.4 | 8.0 | 0.00 | 0.00 | 0.00 | 45 | 1011.7 |
| 20260506151836 | 14 | 102 | 9.7 | 12.9 | 0.00 | 0.00 | 0.00 | 44 | 1011.5 |
| 20260506150831 | 15 | 96 | 6.4 | 12.9 | 0.00 | 0.00 | 0.00 | 43 | 1011.5 |
| 20260506145831 | 15 | 110 | 9.7 | 20.9 | 0.00 | 0.00 | 0.00 | 44 | 1011.5 |
| 20260506144901 | 15 | 90 | 6.4 | 11.3 | 0.00 | 0.00 | 0.00 | 44 | 1011.4 |
| 20260506143916 | 15 | 96 | 9.7 | 11.3 | 0.00 | 0.00 | 0.00 | 43 | 1011.4 |
| 20260506142831 | 15 | 98 | 12.9 | 19.3 | 0.00 | 0.00 | 0.00 | 44 | 1011.4 |
| 20260506141831 | 15 | 99 | 6.4 | 11.3 | 0.00 | 0.00 | 0.00 | 44 | 1011.4 |
| 20260506140831 | 15 | 98 | 9.7 | 12.9 | 0.00 | 0.00 | 0.00 | 43 | 1011.4 |
| 20260506135831 | 15 | 168 | 8.0 | 16.1 | 0.00 | 0.00 | 0.00 | 44 | 1011.4 |
| 20260506134831 | 15 | 30 | 11.3 | 12.9 | 0.00 | 0.00 | 0.00 | 45 | 1011.4 |
| 20260506133831 | 15 | 172 | 9.7 | 22.5 | 0.00 | 0.00 | 0.00 | 46 | 1011.3 |
| 20260506132851 | 15 | 147 | 8.0 | 17.7 | 0.00 | 0.00 | 0.00 | 44 | 1011.3 |
| 20260506131831 | 15 | 114 | 6.4 | 22.5 | 0.00 | 0.00 | 0.00 | 45 | 1011.4 |
| 20260506130831 | 15 | 158 | 6.4 | 16.1 | 0.00 | 0.00 | 0.00 | 45 | 1011.2 |
| 20260506125831 | 16 | 111 | 6.4 | 16.1 | 0.00 | 0.00 | 0.00 | 46 | 1011.1 |
| 20260506124851 | 15 | 104 | 14.5 | 19.3 | 0.00 | 0.00 | 0.00 | 45 | 1011.2 |
| 20260506123851 | 15 | 140 | 12.9 | 19.3 | 0.00 | 0.00 | 0.00 | 45 | 1011.1 |
| 20260506122833 | 15 | 279 | 8.0 | 12.9 | 0.00 | 0.00 | 0.00 | 46 | 1011.1 |
| 20260506121832 | 15 | 125 | 14.5 | 22.5 | 0.00 | 0.00 | 0.00 | 43 | 1011.1 |
| 20260506120832 | 15 | 121 | 8.0 | 17.7 | 0.00 | 0.00 | 0.00 | 44 | 1011.1 |
| 20260506115832 | 15 | 156 | 14.5 | 22.5 | 0.00 | 0.00 | 0.00 | 44 | 1011.1 |
| 20260506114840 | 15 | 107 | 8.0 | 19.3 | 0.00 | 0.00 | 0.00 | 46 | 1011.1 |
| 20260506113831 | 15 | 100 | 12.9 | 22.5 | 0.00 | 0.00 | 0.00 | 47 | 1011.0 |
| 20260506112836 | 14 | 111 | 8.0 | 11.3 | 0.00 | 0.00 | 0.00 | 55 | 1011.0 |
| 20260506111831 | 15 | 108 | 4.8 | 17.7 | 0.00 | 0.00 | 0.00 | 54 | 1011.0 |
| 20260506110831 | 14 | 108 | 9.7 | 11.3 | 0.00 | 0.00 | 0.00 | 53 | 1011.0 |
| 20260506105952 | 15 | 290 | 8.0 | 16.1 | 0.00 | 0.00 | 0.00 | 52 | 1011.1 |
| 20260506104831 | 15 | 290 | 11.3 | 14.5 | 0.00 | 0.00 | 0.00 | 54 | 1011.0 |
| 20260506103832 | 14 | 276 | 8.0 | 11.3 | 0.00 | 0.00 | 0.00 | 51 | 1011.1 |
| 20260506102831 | 14 | 276 | 9.7 | 19.3 | 0.00 | 0.00 | 0.00 | 57 | 1011.0 |
| 20260506101832 | 14 | 99 | 9.7 | 20.9 | 0.00 | 0.00 | 0.00 | 63 | 1011.0 |
| 20260506100832 | 13 | 276 | 9.7 | 14.5 | 0.00 | 0.00 | 0.00 | 61 | 1010.9 |
| 20260506095831 | 13 | 93 | 12.9 | 14.5 | 0.00 | 0.00 | 0.00 | 62 | 1010.9 |
| 20260506094832 | 13 | 123 | 8.0 | 19.3 | 0.00 | 0.00 | 0.00 | 64 | 1010.9 |
| 20260506093836 | 13 | 289 | 4.8 | 14.5 | 0.00 | 0.00 | 0.00 | 66 | 1010.8 |
| 20260506092857 | 13 | 272 | 6.4 | 9.7 | 0.00 | 0.00 | 0.00 | 65 | 1010.8 |
| 20260506091852 | 14 | 108 | 8.0 | 12.9 | 0.00 | 0.00 | 0.00 | 63 | 1010.7 |
| 20260506090852 | 13 | 153 | 6.4 | 11.3 | 0.00 | 0.00 | 0.00 | 66 | 1010.7 |
| 20260506085832 | 13 | 121 | 16.1 | 20.9 | 0.00 | 0.00 | 0.00 | 65 | 1010.7 |
| 20260506084852 | 13 | 142 | 6.4 | 8.0 | 0.00 | 0.00 | 0.00 | 68 | 1010.6 |
| 20260506083851 | 13 | 323 | 12.9 | 17.7 | 0.00 | 0.00 | 0.00 | 68 | 1010.6 |
| 20260506082831 | 13 | 0 | 8.0 | 16.1 | 0.00 | 0.00 | 0.00 | 68 | 1010.6 |
| 20260506081832 | 13 | 335 | 8.0 | 17.7 | 0.00 | 0.00 | 0.00 | 68 | 1010.6 |
| 20260506080832 | 13 | 116 | 9.7 | 11.3 | 0.00 | 0.00 | 0.00 | 69 | 1010.6 |
| 20260506072832 | 12 | 178 | 11.3 | 19.3 | 0.00 | 0.00 | 0.00 | 73 | 1010.4 |
| 20260506071832 | 12 | 294 | 8.0 | 12.9 | 0.00 | 0.00 | 0.00 | 75 | 1010.4 |
| 20260506070832 | 12 | 294 | 11.3 | 19.3 | 0.00 | 0.00 | 0.00 | 76 | 1010.3 |
| 20260506061932 | 11 | 96 | 6.4 | 11.3 | 0.00 | 0.00 | 0.00 | 78 | 1010.1 |
| 20260506060834 | 11 | 96 | 8.0 | 11.3 | 0.00 | 0.00 | 0.00 | 78 | 1010.0 |
| 20260506050832 | 10 | 166 | 8.0 | 9.7 | 0.00 | 0.00 | 0.00 | 78 | 1010.1 |
| 20260506044832 | 10 | 187 | 8.0 | 12.9 | 0.00 | 0.00 | 0.00 | 79 | 1010.2 |
| 20260506043857 | 10 | 187 | 11.3 | 12.9 | 0.00 | 0.00 | 0.00 | 79 | 1010.2 |
| 20260506042832 | 10 | 187 | 6.4 | 11.3 | 0.00 | 0.00 | 0.00 | 80 | 1010.1 |
| 20260506041858 | 10 | 187 | 9.7 | 11.3 | 0.00 | 0.00 | 0.00 | 80 | 1010.2 |
| 20260506040832 | 10 | 270 | 6.4 | 11.3 | 0.00 | 0.00 | 0.00 | 80 | 1010.3 |
| 20260506035832 | 10 | 270 | 8.0 | 12.9 | 0.00 | 0.00 | 0.00 | 80 | 1010.3 |
| 20260506034912 | 10 | 303 | 8.0 | 12.9 | 0.00 | 0.00 | 0.00 | 80 | 1010.4 |
| 20260506033832 | 10 | 306 | 4.8 | 11.3 | 0.00 | 0.00 | 0.00 | 80 | 1010.4 |
| 20260506032832 | 10 | 99 | 6.4 | 11.3 | 0.00 | 0.00 | 0.00 | 80 | 1010.4 |
| 20260506031833 | 10 | 346 | 8.0 | 12.9 | 0.00 | 0.00 | 0.00 | 80 | 1010.5 |
| 20260506030832 | 10 | 172 | 8.0 | 9.7 | 0.00 | 0.00 | 0.00 | 80 | 1010.5 |
| 20260506025832 | 10 | 289 | 4.8 | 16.1 | 0.00 | 0.00 | 0.00 | 80 | 1010.6 |
| 20260506024832 | 10 | 134 | 9.7 | 14.5 | 0.00 | 0.00 | 0.00 | 80 | 1010.6 |
| 20260506023838 | 10 | 134 | 8.0 | 9.7 | 0.00 | 0.00 | 0.00 | 80 | 1010.6 |
| 20260506022832 | 10 | 134 | 8.0 | 11.3 | 0.00 | 0.00 | 0.00 | 80 | 1010.7 |
| 20260506021837 | 10 | 134 | 11.3 | 12.9 | 0.00 | 0.00 | 0.00 | 80 | 1010.7 |
| 20260506020832 | 10 | 134 | 8.0 | 9.7 | 0.00 | 0.00 | 0.00 | 80 | 1010.7 |
| 20260506015833 | 10 | 134 | 8.0 | 19.3 | 0.00 | 0.00 | 0.00 | 80 | 1010.8 |
| 20260506014857 | 10 | 134 | 4.8 | 8.0 | 0.00 | 0.00 | 0.00 | 80 | 1010.8 |
| 20260506013832 | 10 | 270 | 4.8 | 8.0 | 0.00 | 0.00 | 0.00 | 80 | 1010.9 |
| 20260506012837 | 10 | 272 | 8.0 | 11.3 | 0.00 | 0.00 | 0.00 | 81 | 1010.9 |
| 20260506011832 | 9 | 274 | 6.4 | 9.7 | 0.00 | 0.00 | 0.00 | 81 | 1010.9 |
| 20260506010832 | 9 | 274 | 6.4 | 8.0 | 0.00 | 0.00 | 0.00 | 82 | 1011.0 |
| 20260506005832 | 9 | 274 | 3.2 | 6.4 | 0.00 | 0.00 | 0.00 | 82 | 1011.0 |
| 20260506004832 | 9 | 291 | 8.0 | 11.3 | 0.00 | 0.00 | 0.00 | 81 | 1011.1 |
| 20260506003833 | 9 | 98 | 4.8 | 8.0 | 0.00 | 0.00 | 0.00 | 81 | 1011.3 |
| 20260506002837 | 10 | 98 | 9.7 | 12.9 | 0.00 | 0.00 | 0.00 | 81 | 1011.3 |
| 20260506001832 | 9 | 270 | 4.8 | 8.0 | 0.00 | 0.00 | 0.00 | 82 | 1011.4 |
| 20260506000837 | 9 | 270 | 4.8 | 9.7 | 0.00 | 0.00 | 0.00 | 82 | 1011.4 |
| 20260505235838 | 9 | 270 | 8.0 | 14.5 | 0.00 | 0.00 | 0.00 | 82 | 1011.5 |
| 20260505234832 | 8 | 270 | 6.4 | 11.3 | 0.00 | 0.00 | 0.00 | 82 | 1011.4 |
| 20260505233833 | 8 | 285 | 8.0 | 11.3 | 0.00 | 0.00 | 0.00 | 81 | 1011.6 |
| 20260505232833 | 8 | 285 | 6.4 | 9.7 | 0.00 | 0.00 | 0.00 | 80 | 1011.6 |
| 20260505231853 | 8 | 330 | 8.0 | 12.9 | 0.00 | 0.00 | 0.00 | 80 | 1011.7 |
| 20260505230833 | 8 | 192 | 8.0 | 9.7 | 0.00 | 0.00 | 0.00 | 80 | 1011.8 |
| 20260505225853 | 8 | 271 | 6.4 | 11.3 | 0.00 | 0.00 | 0.00 | 79 | 1011.8 |
| 20260505224833 | 8 | 271 | 8.0 | 11.3 | 0.00 | 0.00 | 0.00 | 79 | 1011.8 |